Miscellaneous Local Product
Issued by NWS North Platte, NE

Home | Current Version | Previous Version | Text Only | Print | Product List | Glossary On
Versions: 1 2 3 4 5 6 7 8 9 10 11 12 13 14 15 16 17 18 19 20 21 22 23 24 25 26 27 28 29 30 31 32 33 34 35 36 37 38 39 40 41 42 43 44 45 46 47 48 49 50
000
AXUS43 KLBF 280310
MISLBF


WESTERN AND NORTH CENTRAL NEBRASKA HOURLY WEATHER ROUNDUP
NATIONAL WEATHER SERVICE NORTH PLATTE NE
1000 PM CDT WED MAY 27 2015

***STATIONS NOT REPORTING VARIABLES SUCH AS SKY/WEATHER OR
PRESSURE ARE PROVIDED BY THE NEBRASKA DEPARTMENT OF
ROADS...RAWS...AND APRS NETWORKS...AND ARE NOT UNDER
NATIONAL WEATHER SERVICE QUALITY CONTROL***

...OBSERVATIONS IN AND NEAR THE EASTERN PANHANDLE OF NEBRASKA...

CITY           SKY/WX    TMP DP  RH WIND       PRES   REMARKS
PINE RIDGE     PTCLDY    64  52  64 S14       29.96R
CHADRON        CLEAR     60  52  74 CALM      29.95R
ALLIANCE       CLEAR     60  55  83 S18       30.00R
SIDNEY         PTCLDY    58  51  78 SE17      30.05S
WHITECLAY        N/A     63  51  65 S10         N/A
BIG SPRINGS      N/A     61  58  88 SE16        N/A
$$

...OBSERVATIONS IN NORTH CENTRAL NEBRASKA...

CITY           SKY/WX    TMP DP  RH WIND       PRES   REMARKS
VALENTINE      CLOUDY    64  51  62 S13       29.97S
THEDFORD       CLOUDY    60  58  94 SE5       30.03F
AINSWORTH      CLOUDY    66  55  69 S8        30.02R
O`NEILL        MOCLDY    65  55  68 S5        30.04R
ORD            CLOUDY    69  50  50 S7        30.02R
BROKEN BOW     CLOUDY    64  56  75 SE9       30.03R
BROWNLEE         N/A     60  55  84 SE10        N/A
VALENTINE NWR    N/A     59  53  82 SW13G23     N/A
SPRINGVIEW       N/A     68  56  65 S3          N/A
HALSEY           N/A     66  55  68 SE5G13      N/A
BREWSTER         N/A     65  57  76 SE6         N/A
ROSE             N/A     66  58  75 E7          N/A
NEWPORT          N/A     67  56  65 SE7         N/A
SARGENT          N/A     64  56  75 CALM        N/A
COMSTOCK         N/A     72  63  72 S12         N/A
EWING            N/A     66  56  70 CALM        N/A
$$

...OBSERVATIONS IN SOUTHWEST NEBRASKA AND FAR NORTHEAST COLORADO...

CITY           SKY/WX    TMP DP  RH WIND       PRES   REMARKS
WRAY           FAIR      61  54  78 E17G24    30.05S
HOLYOKE        FAIR      59  54  82 SE20      30.05S
IMPERIAL       PTCLDY    59  53  80 SE13G23   30.06R
OGALLALA       CLEAR     61  58  90 S14G21    30.04R
NORTH PLATTE   CLOUDY    64  56  75 S6        30.03R
MCCOOK         CLOUDY    64  58  80 SE22G31   30.04R
LEXINGTON      LGT RAIN  66  61  82 S17G25    30.02F
PAXTON           N/A     62  58  88 S15         N/A
GOTHENBURG       N/A     66  57  73 S12         N/A
CALLAWAY         N/A     65  60  82 S20         N/A
$$

...NORTH PLATTE AREA...

CITY           SKY/WX    TMP DP  RH WIND       PRES   REMARKS
AIRPORT        CLOUDY    64  56  75 S6        30.03R
$$

...SOME WEATHER OBSERVATIONS FROM AROUND THE REGION...

CITY           SKY/WX    TMP DP  RH WIND       PRES   REMARKS
DENVER         MOCLDY    60  45  57 S10       30.03R
LARAMIE        CLOUDY    51  39  63 S12       30.13R
CHEYENNE       MOCLDY    57  48  72 E6        30.10R
SCOTTSBLUFF    CLEAR     62  55  77 SE13      30.00R
RAPID CITY     CLEAR     62  53  72 S8        29.91R
PIERRE         LGT RAIN  62  58  86 W14       29.95R
WINNER         FAIR      71  51  49 S14       29.95S
SIOUX FALLS    PTCLDY    67  52  58 S8        30.01R
OMAHA          CLOUDY    70  54  56 S6        30.05R
GRAND ISLAND   CLOUDY    69  56  62 S9        30.06R
KANSAS CITY    MOCLDY    69  55  60 SE6       30.08R
WICHITA        CLOUDY    75  66  73 SE8       30.04R
HAYS           CLOUDY    66  55  68 SE15G25   29.98S
LIBERAL        CLOUDY    64  55  72 SE18      30.04S
GOODLAND       CLOUDY    63  59  87 E15       30.08R
$$



USA.gov is the U.S. government's official web portal to all federal, state and local government web resources and services.